Broomfield, CO

8:55 AM MST on February 06, 2016 (GMT -0700)
Jeffco

Weather History for KBJC - December, 2012

Change the Weather History Date:

Monday, December 10, 2012

  Actual Average Record
Temperature  
Mean Temperature 24 °F -  
Max Temperature 37 °F 44 °F 66 °F (1990)
Min Temperature 12 °F 25 °F -5 °F (1986)
Degree Days  
Heating Degree Days 40    
Moisture  
Dew Point 1 °F    
Average Humidity 37    
Maximum Humidity 86    
Minimum Humidity 17    
Precipitation  
Precipitation 0.00 in - - ()
Sea Level Pressure  
Sea Level Pressure 29.88 in    
Wind  
Wind Speed 9 mph (WNW)    
Max Wind Speed 40 mph    
Max Gust Speed 48 mph    
Visibility 10 miles    
Events Snow    
Averages and records for this station are not official NWS values.
T = Trace of Precipitation, MM = Missing Value Source: NWS Daily Summary

Daily Weather History Graph

Daily Weather History Graph

Search for Another Location

Airport or City:

Trip Planner

Search our weather history database for the weather conditions in past years. The results will help you decide how hot, cold, wet, or windy it might be!

Date:

Astronomy

Dec. 10, 2012 Rise Set
Actual Time 7:11 AM MST 4:35 PM MST
Civil Twilight 6:41 AM MST 5:05 PM MST
Nautical Twilight 6:07 AM MST 5:39 PM MST
Astronomical Twilight 5:34 AM MST 6:12 PM MST
Moon 3:58 AM MST (12/10) 2:26 PM MST (12/10)
Length of Visible Light 10h 24m
Length of Day
9h 23m
Waning Crescent, 10% of the Moon is Illuminated
Dec 10
Waning Crescent
Dec 13
New
Dec 19
First Quarter
Dec 28
Full
Jan 4
Last Quarter

Hourly Weather History & Observations

Time (MST) Temp. Windchill Dew Point Humidity Pressure Visibility Wind Dir Wind Speed Gust Speed Precip Events Conditions
12:13 AM 12.2 °F - 1.4 °F 62% 29.95 in 10.0 mi Calm Calm - N/A   Clear
12:31 AM 12.2 °F 6.1 °F 1.4 °F 62% 29.94 in 10.0 mi South 3.5 mph - N/A   Clear
12:52 AM 14.0 °F 6.5 °F 1.4 °F 57% 29.93 in 10.0 mi SSE 4.6 mph - N/A   Clear
1:14 AM 17.6 °F 9.3 °F -2.2 °F 42% 29.92 in 10.0 mi West 5.8 mph - N/A   Clear
1:56 AM 21.2 °F 10.1 °F -7.6 °F 28% 29.91 in 10.0 mi West 10.4 mph - N/A   Clear
2:12 AM 23.0 °F 11.7 °F -5.8 °F 28% 29.91 in 10.0 mi West 11.5 mph - N/A   Clear
2:34 AM 24.8 °F 15.3 °F -5.8 °F 26% 29.90 in 10.0 mi WNW 9.2 mph - N/A   Mostly Cloudy
2:54 AM 24.8 °F 17.9 °F -5.8 °F 26% 29.89 in 10.0 mi NNW 5.8 mph - N/A   Overcast
3:16 AM 19.4 °F 14.3 °F -4.0 °F 36% 29.87 in 10.0 mi SE 3.5 mph - N/A   Mostly Cloudy
3:34 AM 17.6 °F - -0.4 °F 45% 29.86 in 10.0 mi Calm Calm - N/A   Scattered Clouds
3:56 AM 21.2 °F 12.6 °F -5.8 °F 30% 29.86 in 10.0 mi West 6.9 mph - N/A   Clear
4:11 AM 19.4 °F 6.6 °F -5.8 °F 33% 29.85 in 10.0 mi NW 12.7 mph - N/A   Clear
4:55 AM 17.6 °F 3.7 °F -2.2 °F 42% 29.86 in 10.0 mi West 13.8 mph - N/A   Clear
5:51 AM 24.8 °F 12.4 °F -5.8 °F 26% 29.87 in 50.0 mi West 15.0 mph 20.7 mph N/A   Scattered Clouds
6:59 AM 26.6 °F 10.3 °F -5.8 °F 24% 29.84 in 70.0 mi West 29.9 mph 40.3 mph N/A   Scattered Clouds
7:49 AM 28.4 °F 12.7 °F -5.8 °F 23% 29.84 in 70.0 mi West 29.9 mph 39.1 mph N/A   Scattered Clouds
8:55 AM 30.2 °F 13.3 °F -2.2 °F 25% 29.81 in 70.0 mi West 40.3 mph 48.3 mph N/A   Mostly Cloudy
9:47 AM 32.0 °F 17.9 °F -2.2 °F 23% 29.83 in 60.0 mi West 28.8 mph 38.0 mph N/A   Mostly Cloudy
10:54 AM 33.8 °F 28.6 °F -2.2 °F 22% 29.85 in 70.0 mi North 5.8 mph - N/A   Mostly Cloudy
11:58 AM 37.4 °F 26.1 °F -4.0 °F 17% 29.82 in 70.0 mi WNW 24.2 mph 36.8 mph N/A   Scattered Clouds
12:47 PM 37.4 °F 26.6 °F -2.2 °F 19% 29.82 in 70.0 mi West 21.9 mph 35.7 mph N/A   Scattered Clouds
1:47 PM 37.4 °F 28.5 °F -2.2 °F 19% 29.81 in 70.0 mi WNW 15.0 mph 23.0 mph N/A   Mostly Cloudy
2:53 PM 35.6 °F 25.2 °F -0.4 °F 22% 29.81 in 70.0 mi West 18.4 mph - N/A   Mostly Cloudy
3:47 PM 35.6 °F 27.5 °F -0.4 °F 22% 29.83 in 60.0 mi WNW 11.5 mph 18.4 mph N/A   Mostly Cloudy
4:49 PM 32.0 °F 22.1 °F -0.4 °F 25% 29.83 in 60.0 mi WNW 13.8 mph 18.4 mph N/A   Mostly Cloudy
5:49 PM 32.0 °F 20.8 °F -0.4 °F 25% 29.83 in 60.0 mi WNW 17.3 mph - N/A   Scattered Clouds
6:47 PM 30.2 °F 22.6 °F -0.4 °F 27% 29.86 in 30.0 mi WNW 8.1 mph - N/A   Mostly Cloudy
7:48 PM 32.0 °F 24.2 °F -0.4 °F 25% 29.87 in 30.0 mi WNW 9.2 mph - N/A   Mostly Cloudy
8:46 PM 28.4 °F - 1.4 °F 31% 29.88 in 20.0 mi Calm Calm - N/A   Mostly Cloudy
9:47 PM 28.4 °F 23.3 °F 1.4 °F 31% 29.90 in 20.0 mi ENE 4.6 mph - N/A   Mostly Cloudy
10:16 PM 30.2 °F 20.8 °F 8.6 °F 40% 29.93 in 10.0 mi NE 11.5 mph 17.3 mph N/A   Overcast
10:36 PM 28.4 °F 18.5 °F 15.8 °F 59% 29.95 in 10.0 mi NE 11.5 mph - N/A   Overcast
10:56 PM 26.6 °F 17.5 °F 17.6 °F 69% 29.96 in 4.0 mi NE 9.2 mph - N/A Snow Light Snow
11:15 PM 26.6 °F 21.2 °F 21.2 °F 80% 29.97 in 1.5 mi ENE 4.6 mph - N/A Snow Light Snow
11:35 PM 26.6 °F - 21.2 °F 80% 29.97 in 1.5 mi Calm Calm - N/A Snow Light Snow
11:56 PM 26.6 °F - 23.0 °F 86% 29.97 in 1.5 mi Calm Calm - N/A Snow Light Snow